Regional Weather Roundup
Issued by NWS

Home | Current Version | Previous Version | Text Only | Print | Product List | Glossary Off
Versions: 1 2 3 4 5 6 7 8 9 10 11 12 13 14 15 16 17 18 19 20 21 22 23 24 25 26 27 28 29 30 31 32 33 34 35 36 37 38 39 40 41 42 43 44 45 46 47 48 49 50

199
ASUS43 KLOT 272008
RWRIL

ILLINOIS REGIONAL WEATHER ROUNDUP
NATIONAL WEATHER SERVICE CHICAGO/ROMEOVILLE IL
300 PM CDT TUE JUN 27 2017

NOTE: "FAIR" INDICATES FEW OR NO CLOUDS BELOW 12,000 FEET WITH NO
SIGNIFICANT WEATHER AND/OR OBSTRUCTIONS TO VISIBILITY.

* THESE STATIONS ARE NOT UNDER NWS QUALITY CONTROL. THEY ALSO MAY NOT
  REPORT WEATHER SUCH AS PRECIPITATION OR FOG.

ILZ001-002-007-009-015-016-024-272100-
NORTHWEST ILLINOIS

CITY           SKY/WX    TMP DP  RH WIND       PRES   REMARKS
MOLINE         SUNNY     76  45  33 SW7       30.07F
STERLING*      SUNNY     74  48  39 VRB3      30.09F
SAVANNA*       SUNNY     75  45  34 SW6       30.08F
$$

ILZ003-004-008-010-011-017-018-272100-
NORTH CENTRAL ILLINOIS

CITY           SKY/WX    TMP DP  RH WIND       PRES   REMARKS
ROCKFORD       PTSUNNY   76  44  32 VRB3      30.09F
FREEPORT*      PTSUNNY   73  45  36 S5        30.10F
ROCHELLE*      SUNNY     73  46  38 CALM      30.09F
DE KALB*       MOSUNNY   73  46  38 S9        30.09F
PERU*          SUNNY     72  44  36 CALM      30.10F
$$

ILZ005-006-012>014-019>023-272100-
NORTHEAST ILLINOIS

CITY           SKY/WX    TMP DP  RH WIND       PRES   REMARKS
CHICAGO-OHARE  MOSUNNY   73  43  33 CALM      30.07F
CHICAGO-MIDWAY PTSUNNY   75  46  35 W10       30.08F
AURORA         MOSUNNY   75  44  33 S7        30.09F
LANSING*       MOSUNNY   75  44  33 W7        30.09F
JOLIET*        PTSUNNY   76  46  34 W5        30.09F
WAUKEGAN       PTSUNNY   72  46  39 W5        30.07F
DUPAGE AIRPORT PTSUNNY   75  47  36 W8        30.08S
WHEELING       MOSUNNY   73  47  39 N5        30.09F
MORRIS*        MOSUNNY   75  44  32 W7        30.08F
ROMEOVILLE*    MOSUNNY   75  41  29 W6        30.09S
$$

LMZ740>746-272100-
SOUTHERN LAKE MICHIGAN

STATION/POSITION SKY/WX   TEMP    WIND        PRES    VSBY  WAVE
                          AIR SEA DIR/SP/G                  HT/PER
                          (F)     (DEG/KT/KT) (MB)    (MI)  (FT/S)
SOUTHERN BUOY              62 62  190/  8/  8 1019.2          1/ 3
WILMETTE HARBOR            64 64  140/ 10/ 12   N/A           1/ 2
HARRISON CRIB              67     110/ 11/ 11   N/A
BURNHAM HARBOR             69                   N/A
CALUMET HARBOR             67      60/  7/ 10 1018.5F
BURNS HARBOR               68      60/  8/  8 1019.6F
MICHIGAN CITY              70     360/  2/  2   N/A
MICHIGAN CITY 6N           66 68  100/  2/  4   N/A           1/ 4
ST. JOSEPH                 66 70  270/  4/  6 1019.6          2/ 3
$$

ILZ025>027-034>036-040-047-049-050-058-095>099-272100-
WEST-CENTRAL ILLINOIS

CITY           SKY/WX    TMP DP  RH WIND       PRES   REMARKS
QUINCY         SUNNY     76  49  38 CALM      30.08F
GALESBURG*     SUNNY     74  49  40 SE6       30.09F
MACOMB*        SUNNY     76  45  33 SE5       30.10F
JACKSONVILLE*  SUNNY     75  46  35 CALM      30.08F
PITTSFIELD*    SUNNY     77  51  41 SE3       30.09F
$$

ILZ028>032-037-038-041>044-048-051>054-059>061-272100-
CENTRAL ILLINOIS

CITY           SKY/WX    TMP DP  RH WIND       PRES   REMARKS
PONTIAC        SUNNY     74  43  32 W3        30.11F
BLOOMINGTON    SUNNY     73  42  32 CALM      30.13S
DECATUR        SUNNY     74  46  36 VRB7      30.12F
PEORIA         SUNNY     75  41  29 CALM      30.11F
LACON*         SUNNY     73  45  36 W3        30.10F
LINCOLN*       SUNNY     76  48  38 S6        30.11F
SPRINGFIELD    SUNNY     77  49  37 S6        30.10F
TAYLORVILLE    SUNNY     75  47  37 W3        30.11F
$$

ILZ033-039-045-046-055>057-062-063-272100-
EAST-CENTRAL ILLINOIS

CITY           SKY/WX    TMP DP  RH WIND       PRES   REMARKS
CHAMPAIGN      SUNNY     76  41  28 VRB3      30.12F
RANTOUL*       SUNNY     75  46  34 CALM      30.11F
MATTOON        SUNNY     74  47  38 VRB7      30.11F
PARIS*         SUNNY     73  49  42 SW3       30.13F
$$

ILZ079-100>102-272100-
SOUTHWEST ILLINOIS

CITY           SKY/WX    TMP DP  RH WIND       PRES   REMARKS
ALTON          MOSUNNY   77  55  47 CALM      30.09F
BELLEVILLE     SUNNY     78  52  39 CALM      30.09F
CAHOKIA*       MOSUNNY   79  48  33 VRB3      30.08F
SPARTA*        SUNNY     78  52  39 E9        30.09F
$$

ILZ064>066-069>071-074>076-080>082-084>086-088>090-092>094-272100-
SOUTH-CENTRAL ILLINOIS

CITY           SKY/WX    TMP DP  RH WIND       PRES   REMARKS
CARBONDALE     SUNNY     79  54  41 VRB5      30.09F
CAIRO*         SUNNY     80  56  44 E6        30.09F HX  80
EFFINGHAM*     SUNNY     77  49  37 NE6       30.13F
MARION         MOSUNNY   79  54  41 NE6       30.11F
MT. VERNON     MOSUNNY   76  53  44 VRB3      30.11F
CENTRALIA*     SUNNY     80  52  38 SE5       30.10S HX  80
SALEM*         MOSUNNY   78  48  34 CALM      30.11F
METROPOLIS*    SUNNY     80  58  46 CALM      30.10F HX  80
$$

ILZ067-068-072-073-078-083-087-091-272100-
SOUTHEAST ILLINOIS

CITY           SKY/WX    TMP DP  RH WIND       PRES   REMARKS
LAWRENCEVILLE  SUNNY     76  48  37 CALM      30.13F
FLORA*         PTSUNNY   79  51  37 E9        30.11F
FAIRFIELD*     MOSUNNY   78  53  43 SE6       30.10F
HARRISBURG*    SUNNY     78  52  41 CALM      30.11F
ROBINSON*      SUNNY     74  48  39 SW3       30.13F
CARMI*         PTSUNNY   79  53  40 CALM      30.11F
$$

ABBREVIATIONS USED IN REMARKS
   TC - TEMPERATURE IN CELSIUS
  WCI - WIND CHILL INDEX
   HX - HEAT INDEX
  VSB - VISIBILITY
$$





USA.gov is the U.S. government's official web portal to all federal, state and local government web resources and services.